Temp
64 63 64 65 65 64 63 63 63 62 62 63 62 62 63 63 63 62 61 61 61 60 60 59 58 57 58 59 60 58 58 59 58 58 55 53 55 55 54 51 52 51 50 46 49 51 47 48 47 51 48 46 50 47 49 50 49 47 48 49 52 51 49
64 63 64 65 64 64 62 61 62 61 61 61 62 62 62 63 64 62 61 60 60 60 60 57 57 57 57 58 57 57 57 56 57 57 56 54 54 53 50 48 50 49 48 48 49 47 43 44 45 46 48 50 50 47 48 46 47 48 50 50 55 53 53
63 63 64 64 63 62 61 61 60 60 60 60 60 61 61 62 62 62 61 61 59 60 60 57 58 57 56 56 57 58 57 57 55 56 57 54 55 52 54 51 49 48 49 51 50 44 46 44 48 48 44 48 48 45 45 46 49 49 49 49 50 51 49
63 63 63 63 62 61 61 59 59 59 59 59 59 60 60 61 61 62 61 60 60 61 59 57 58 58 56 55 55 56 57 56 53 54 53 52 52 51 50 53 53 54 52 49 49 47 44 43 44 46 43 47 48 49 49 48 51 50 50 49 50 49 48
64 63 63 63 63 62 61 59 58 58 58 58 58 58 58 59 60 60 61 60 59 57 57 57 57 57 56 54 53 54 54 52 52 54 51 50 49 49 48 49 50 51 47 48 50 50 50 44 49 45 45 44 47 46 49 49 49 50 51 51 50 50 49
64 64 64 63 63 62 61 59 58 58 57 57 57 58 57 58 59 59 59 58 57 57 57 56 56 56 55 55 54 53 51 52 52 52 51 50 50 51 49 47 47 48 48 46 47 47 45 46 48 42 44 42 42 45 49 46 50 51 48 51 51 50 49
65 65 64 64 63 63 62 60 60 59 58 59 58 58 58 58 58 59 60 58 58 57 57 57 56 55 55 55 54 52 51 50 50 50 50 48 47 47 48 48 46 47 45 46 46 46 46 48 46 50 43 41 40 45 45 44 46 49 52 50 49 49 51
65 65 64 64 64 62 61 61 60 59 59 58 58 57 58 58 58 58 57 56 56 56 57 56 56 55 55 55 54 52 51 50 50 50 49 49 49 48 46 47 48 46 45 44 45 45 46 49 48 46 47 47 43 40 42 42 40 46 47 45 47 50 50
65 65 64 64 64 63 62 60 58 58 59 58 57 57 57 58 57 57 57 55 55 56 56 56 55 54 53 52 51 52 51 52 50 49 48 49 48 47 47 46 48 45 45 45 45 44 43 44 44 43 48 51 48 42 40 43 39 45 48 50 49 49 50
65 64 64 63 62 62 61 60 59 59 58 58 58 58 57 56 57 57 56 55 55 56 56 55 54 52 51 52 52 52 51 49 50 49 48 48 47 46 46 46 47 45 45 45 45 46 45 43 43 43 44 49 50 46 39 39 40 39 47 45 48 51 47
65 64 64 63 62 61 60 59 58 58 58 58 58 58 57 56 56 58 55 55 55 54 55 55 54 53 52 51 51 51 49 49 49 48 48 48 47 47 47 47 46 47 45 45 44 44 44 43 43 44 41 41 46 49 38 40 40 39 46 44 43 50 47
64 64 63 63 62 61 60 59 59 58 58 58 58 57 56 56 56 55 55 54 55 55 55 55 54 53 51 51 52 50 48 49 49 47 46 48 47 48 47 46 44 45 44 45 44 44 44 44 43 43 43 43 43 44 39 39 41 42 42 47 43 43 48
64 64 63 62 61 61 61 59 59 58 58 58 57 57 57 56 56 54 54 54 54 54 55 53 53 53 51 52 51 50 48 48 48 48 47 46 49 47 47 46 45 46 44 45 44 44 43 44 44 43 45 44 42 41 41 36 37 43 42 43 44 43 46
64 64 63 63 62 61 61 60 59 59 58 57 57 56 57 56 56 55 54 54 54 53 53 52 52 52 50 49 48 48 47 48 48 46 47 46 46 47 47 47 45 44 43 46 44 44 44 43 43 44 43 43 43 41 42 37 41 43 44 41 39 44 45
65 65 64 63 63 62 61 60 59 58 58 57 57 57 57 56 55 54 54 53 53 52 52 52 51 51 50 49 48 49 48 48 48 47 46 46 45 47 46 46 44 43 43 45 44 45 45 43 43 43 43 44 42 43 39 39 38 38 42 40 43 43 45
65 64 64 63 63 62 61 60 59 58 58 56 57 57 57 56 55 54 54 53 52 52 52 51 50 50 50 50 49 48 48 48 48 47 47 46 46 44 45 45 43 43 46 45 44 44 43 43 43 44 42 44 44 42 40 38 36 38 39 44 39 42 42
64 64 63 63 63 61 60 59 59 59 58 57 57 56 56 56 55 54 53 53 52 52 51 51 50 50 51 50 50 49 47 47 48 48 48 47 45 46 46 45 44 45 45 45 43 43 42 43 45 45 43 42 43 42 41 41 39 37 38 42 43 43 43
64 63 63 63 62 61 60 59 59 58 57 56 57 56 55 55 54 54 53 53 52 52 52 51 50 50 50 50 50 49 48 47 47 47 47 46 49 47 47 47 45 44 45 45 42 43 43 43 43 44 43 41 42 42 43 42 40 38 39 39 42 39 38
64 64 64 63 62 61 60 59 58 58 58 57 56 56 55 55 55 54 53 53 53 52 52 51 51 50 49 49 49 48 48 48 47 46 46 46 47 46 47 46 44 44 45 46 43 42 42 42 41 42 42 41 40 40 40 39 40 40 41 39 40 43 40
64 64 64 63 63 61 60 59 59 58 58 57 56 55 55 55 54 54 53 53 53 52 51 51 50 49 49 49 49 48 47 46 46 46 46 47 46 45 45 45 44 44 45 44 43 43 42 41 43 41 43 41 39 40 39 38 39 40 41 40 40 41 40
65 65 64 64 62 61 60 60 59 59 58 57 56 56 55 55 54 54 53 53 52 52 51 50 49 49 49 49 49 48 48 47 46 45 46 45 45 44 44 44 44 44 45 44 44 42 43 42 41 42 40 41 40 41 40 39 39 40 41 41 40 41 40
65 65 64 63 62 61 61 61 60 60 59 58 57 56 56 55 53 53 52 52 52 52 51 51 51 50 49 48 48 48 47 48 47 46 45 44 43 43 42 43 43 44 48 50 50 48 47 47 44 43 41 40 41 41 40 40 40 40 40 41 41 39 40
65 64 64 62 62 62 61 61 60 59 59 59 58 57 55 54 54 53 52 51 51 51 51 51 53 52 52 50 48 49 48 47 47 46 46 43 42 43 43 43 47 54 55 53 51 49 47 49 50 47 43 42 43 42 42 40 40 41 42 42 41 41 41
65 64 64 63 62 62 61 60 60 59 59 58 58 57 56 54 53 53 53 52 50 51 51 53 50 46 46 49 50 48 48 47 46 46 46 45 44 44 44 45 47 53 53 52 49 47 46 46 46 47 47 48 48 45 42 41 41 41 43 42 40 39 40
64 64 63 62 62 61 61 60 59 59 58 58 57 57 56 55 53 52 52 51 51 51 51 52 46 45 45 46 50 50 48 48 48 46 46 45 46 46 46 47 46 46 44 46 47 47 48 47 45 45 44 45 45 46 46 45 44 42 41 41 40 41 40
63 63 63 62 62 61 60 59 59 58 58 58 57 56 55 54 52 52 52 51 50 51 50 48 44 45 45 45 47 49 49 49 48 47 47 46 46 45 45 44 43 44 47 54 51 48 49 48 46 45 45 45 43 42 41 41 44 46 44 43 42 40 40
63 62 62 62 61 60 59 58 59 59 58 57 56 56 55 53 52 51 51 51 50 50 50 48 44 45 45 44 44 47 49 49 49 48 47 45 45 45 44 45 45 46 47 50 49 48 48 47 47 46 45 45 45 48 44 41 41 42 45 45 42 42 41
62 62 61 61 60 59 59 58 58 58 57 57 56 55 55 53 51 51 51 51 50 50 51 46 44 44 44 44 44 46 50 50 48 47 47 47 47 46 46 46 46 46 46 47 48 49 48 47 47 46 46 46 46 45 44 44 45 45 45 44 44 45 44
62 61 61 60 59 59 58 58 58 57 57 56 56 56 54 54 52 51 50 50 50 50 50 44 43 44 44 44 44 50 50 49 47 47 46 47 47 46 45 45 45 45 47 48 50 46 47 48 47 47 45 43 42 42 43 47 45 44 46 45 44 44 43
61 61 60 60 59 58 58 57 58 57 56 56 55 55 55 54 54 52 51 50 50 50 48 44 43 44 44 43 46 50 48 48 47 46 46 46 46 46 45 45 45 45 47 48 48 42 43 47 47 45 43 40 42 44 44 44 43 42 42 42 42 42 41
61 60 60 59 59 59 59 59 58 57 57 56 55 56 56 55 54 54 53 52 52 50 47 45 43 43 43 43 48 49 48 47 46 46 45 45 45 45 46 52 51 46 46 45 44 41 41 46 45 43 41 41 41 41 40 40 41 41 42 41 41 40 40
61 60 60 60 60 59 59 58 58 58 58 57 56 57 56 56 54 54 53 53 54 51 47 45 43 43 43 43 48 51 49 48 46 45 45 44 44 45 46 52 54 50 48 46 42 42 41 44 45 44 43 42 40 39 42 38 38 41 40 40 41 42 42
61 61 60 60 60 60 59 58 57 57 57 57 57 56 56 56 54 52 51 51 52 51 49 46 45 42 43 43 46 51 49 48 47 46 46 47 45 45 46 46 48 45 44 44 42 41 41 42 45 42 41 41 39 41 41 37 39 38 39 41 37 39 41
60 61 61 60 59 58 58 57 57 56 56 56 56 55 55 54 54 51 50 51 51 50 50 49 46 42 43 44 45 48 51 51 51 49 47 47 47 46 46 46 47 46 43 43 42 41 41 41 44 44 42 43 44 42 40 40 43 47 41 41 41 41 41
61 60 60 59 57 56 56 57 57 57 54 53 55 54 53 53 52 50 49 49 50 49 51 50 47 43 43 44 44 46 52 52 52 50 47 47 46 45 46 47 47 46 42 42 42 41 41 41 41 46 44 43 42 39 44 43 41 40 39 40 38 39 40
59 59 57 57 57 56 56 56 56 56 55 53 52 52 51 51 50 48 48 47 48 49 48 49 46 46 43 43 44 45 47 49 45 51 49 47 46 47 48 48 48 47 42 42 42 41 41 40 42 45 42 41 40 39 42 41 38 38 38 39 40 40 39
57 57 56 55 55 55 55 55 55 55 55 52 50 51 49 49 48 47 47 46 46 45 47 48 45 45 45 42 43 43 44 44 44 50 51 49 48 47 47 47 47 43 41 41 41 41 40 41 43 42 41 40 39 40 42 40 38 39 38 39 40 39 40
MSLP
1014.44 1014.96 1015.20 1015.40 1015.52 1015.72 1015.96 1016.12 1016.16 1016.24 1016.28 1016.32 1016.48 1016.68 1016.84 1017.04 1017.24 1017.48 1017.68 1017.92 1018.16 1018.32 1018.44 1018.60 1018.88 1019.16 1019.36 1019.56 1019.68 1019.84 1020.00 1020.04 1020.16 1020.36 1020.80 1021.04 1020.96 1021.12 1021.28 1021.36 1021.44 1021.76 1021.80 1021.76 1021.68 1021.72 1022.28 1023.00 1023.28 1023.36 1023.40 1023.28 1023.12 1023.12 1023.20 1023.24 1023.52 1023.60 1023.56 1023.56 1023.52 1023.48 1023.48
1014.16 1014.64 1014.96 1015.20 1015.52 1015.72 1016.00 1016.12 1016.24 1016.36 1016.40 1016.44 1016.52 1016.64 1016.80 1016.92 1017.12 1017.32 1017.56 1017.84 1018.08 1018.32 1018.40 1018.64 1018.88 1019.00 1019.04 1019.32 1019.64 1019.84 1019.96 1020.08 1020.12 1020.20 1020.44 1020.76 1020.88 1020.80 1021.16 1021.52 1021.60 1021.80 1021.88 1022.00 1022.08 1022.04 1022.08 1022.60 1023.12 1023.28 1023.12 1023.28 1023.24 1023.12 1023.08 1023.48 1023.64 1023.68 1023.56 1023.48 1023.52 1023.52 1023.56
1014.16 1014.64 1014.84 1015.20 1015.48 1015.72 1015.96 1016.16 1016.32 1016.44 1016.56 1016.64 1016.68 1016.76 1016.88 1016.96 1017.08 1017.24 1017.52 1017.72 1017.96 1018.12 1018.32 1018.68 1019.00 1019.16 1019.12 1019.04 1019.24 1019.44 1019.68 1019.88 1020.12 1020.24 1020.20 1020.40 1020.56 1020.64 1020.64 1021.00 1021.32 1021.84 1021.84 1021.92 1022.04 1022.08 1022.36 1022.28 1022.16 1022.88 1023.04 1023.12 1023.28 1023.04 1023.28 1023.40 1023.48 1023.56 1023.64 1023.68 1023.56 1023.60 1023.68
1013.96 1014.40 1014.92 1015.20 1015.44 1015.76 1015.96 1016.20 1016.36 1016.52 1016.60 1016.68 1016.80 1016.92 1016.88 1017.04 1017.16 1017.28 1017.52 1017.72 1017.88 1018.08 1018.20 1018.44 1018.72 1019.08 1019.20 1019.00 1019.12 1019.32 1019.52 1019.68 1020.00 1020.20 1020.40 1020.52 1020.60 1020.60 1020.72 1020.76 1020.88 1021.04 1021.08 1021.32 1021.48 1021.72 1021.64 1022.04 1022.44 1022.84 1023.12 1023.20 1023.00 1023.04 1023.48 1023.64 1023.44 1023.60 1023.68 1023.68 1023.60 1023.68 1023.76
1013.52 1014.08 1014.48 1014.92 1015.20 1015.48 1015.80 1016.12 1016.36 1016.56 1016.72 1016.80 1016.88 1016.96 1017.12 1017.16 1017.24 1017.48 1017.60 1017.80 1018.04 1018.32 1018.48 1018.64 1018.88 1019.20 1019.32 1019.28 1019.16 1019.24 1019.48 1019.80 1020.00 1020.16 1020.32 1020.48 1020.60 1020.64 1020.68 1020.84 1020.84 1021.00 1021.04 1020.88 1021.08 1021.32 1021.36 1021.60 1021.60 1022.28 1022.88 1023.52 1023.48 1023.68 1023.88 1023.64 1023.80 1023.76 1023.76 1023.72 1023.80 1023.84 1023.96
1013.24 1013.64 1014.08 1014.56 1014.88 1015.20 1015.56 1015.96 1016.24 1016.40 1016.64 1016.80 1016.92 1017.00 1017.16 1017.20 1017.28 1017.56 1017.72 1017.92 1018.20 1018.40 1018.52 1018.68 1018.80 1019.00 1019.16 1019.36 1019.28 1019.28 1019.52 1019.68 1019.88 1020.04 1020.20 1020.28 1020.36 1020.36 1020.60 1021.16 1021.08 1021.08 1020.92 1021.28 1021.28 1021.32 1021.68 1021.80 1021.72 1022.48 1023.44 1023.72 1022.92 1023.52 1023.64 1023.64 1023.76 1024.00 1023.96 1023.88 1023.88 1024.00 1024.08
1013.04 1013.36 1013.76 1014.16 1014.56 1014.84 1015.16 1015.48 1015.68 1015.88 1016.20 1016.32 1016.64 1016.80 1017.00 1017.16 1017.32 1017.44 1017.68 1017.92 1018.12 1018.36 1018.52 1018.60 1018.72 1019.00 1019.24 1019.24 1019.40 1019.36 1019.52 1019.88 1020.12 1020.16 1020.24 1020.56 1020.72 1020.80 1021.04 1020.96 1021.16 1021.12 1021.28 1021.56 1021.36 1021.44 1021.44 1021.76 1021.88 1021.88 1022.80 1023.52 1023.48 1023.36 1023.72 1023.68 1024.04 1023.88 1023.96 1024.00 1024.04 1024.12 1024.20
1012.80 1013.16 1013.52 1013.80 1014.24 1014.64 1015.00 1015.28 1015.48 1015.68 1015.92 1016.28 1016.44 1016.72 1016.96 1017.12 1017.32 1017.56 1017.80 1018.00 1018.24 1018.36 1018.56 1018.84 1019.12 1019.12 1019.16 1019.24 1019.44 1019.52 1019.72 1020.04 1020.24 1020.36 1020.56 1020.56 1020.72 1021.04 1021.20 1021.04 1021.28 1021.48 1021.48 1021.68 1021.68 1021.48 1021.72 1021.36 1021.40 1021.92 1022.08 1022.80 1023.36 1023.56 1023.60 1024.04 1024.12 1023.96 1024.12 1023.96 1024.04 1024.00 1024.08
1012.56 1012.96 1013.40 1013.72 1014.04 1014.24 1014.64 1015.04 1015.48 1015.72 1015.88 1016.16 1016.48 1016.68 1016.96 1017.08 1017.36 1017.64 1017.88 1018.16 1018.32 1018.44 1018.48 1018.56 1019.00 1019.16 1019.12 1019.20 1019.56 1019.72 1019.84 1020.16 1020.24 1020.44 1020.72 1020.80 1020.92 1021.12 1021.20 1021.52 1021.28 1021.48 1021.72 1021.72 1021.76 1021.72 1021.76 1021.76 1021.72 1022.12 1021.80 1021.92 1022.44 1023.36 1023.88 1023.80 1024.08 1024.20 1024.40 1024.00 1023.92 1023.92 1024.08
1012.40 1012.76 1013.16 1013.60 1013.92 1014.28 1014.64 1015.08 1015.36 1015.60 1015.92 1016.16 1016.40 1016.64 1016.92 1017.20 1017.40 1017.60 1017.88 1018.16 1018.28 1018.36 1018.60 1018.76 1019.00 1019.20 1019.24 1019.32 1019.60 1019.84 1020.04 1020.32 1020.36 1020.52 1020.84 1020.88 1021.16 1021.32 1021.40 1021.36 1021.32 1021.60 1021.72 1021.88 1021.88 1021.84 1021.92 1022.08 1022.08 1022.04 1021.92 1021.60 1021.80 1022.40 1023.16 1023.60 1023.96 1024.24 1024.20 1024.32 1024.04 1023.76 1024.12
1012.16 1012.60 1013.00 1013.48 1013.88 1014.28 1014.72 1015.12 1015.48 1015.76 1015.88 1016.04 1016.24 1016.56 1016.84 1017.16 1017.44 1017.60 1017.88 1018.12 1018.24 1018.40 1018.64 1018.92 1019.08 1019.20 1019.32 1019.52 1019.80 1020.00 1020.20 1020.36 1020.56 1020.84 1021.00 1021.04 1021.28 1021.40 1021.48 1021.64 1021.60 1021.60 1021.88 1021.76 1021.76 1021.96 1022.00 1022.12 1022.16 1022.04 1021.92 1022.00 1022.00 1021.68 1022.40 1022.84 1023.96 1024.60 1024.20 1024.36 1024.36 1023.92 1024.08
1012.04 1012.48 1012.92 1013.32 1013.72 1014.12 1014.52 1014.88 1015.12 1015.36 1015.72 1016.00 1016.24 1016.56 1016.88 1017.12 1017.36 1017.60 1017.84 1018.12 1018.36 1018.56 1018.88 1019.08 1019.12 1019.16 1019.28 1019.56 1019.88 1020.08 1020.40 1020.56 1020.60 1020.84 1021.16 1021.20 1021.40 1021.40 1021.48 1021.56 1021.76 1021.76 1021.92 1021.88 1022.08 1022.20 1022.36 1022.32 1022.32 1022.40 1022.32 1022.24 1022.16 1021.96 1022.12 1022.64 1023.48 1024.40 1024.64 1024.04 1024.16 1024.32 1024.36
1011.88 1012.32 1012.76 1013.20 1013.68 1013.96 1014.32 1014.68 1015.04 1015.36 1015.48 1015.76 1016.08 1016.40 1016.68 1016.96 1017.24 1017.56 1017.92 1018.16 1018.40 1018.68 1018.96 1019.08 1019.08 1019.20 1019.48 1019.68 1019.92 1020.24 1020.52 1020.68 1020.76 1020.88 1021.20 1021.40 1021.44 1021.52 1021.56 1021.64 1021.72 1021.76 1022.00 1022.08 1022.24 1022.36 1022.40 1022.60 1022.52 1022.32 1022.24 1022.16 1022.32 1022.28 1022.24 1022.48 1022.80 1023.84 1024.44 1024.16 1024.12 1024.24 1024.48
1011.84 1012.24 1012.68 1013.04 1013.40 1013.80 1014.16 1014.52 1014.76 1015.00 1015.48 1015.72 1016.00 1016.36 1016.56 1016.84 1017.16 1017.52 1017.84 1018.12 1018.36 1018.60 1018.88 1019.08 1019.20 1019.36 1019.56 1019.84 1020.12 1020.32 1020.64 1020.76 1020.80 1021.12 1021.20 1021.48 1021.64 1021.60 1021.60 1021.64 1021.80 1021.96 1022.12 1022.00 1022.28 1022.48 1022.60 1022.76 1022.88 1022.76 1022.68 1022.44 1022.36 1022.44 1022.24 1022.72 1023.24 1024.00 1024.08 1024.60 1024.56 1024.24 1024.36
1011.60 1012.04 1012.52 1012.92 1013.28 1013.68 1014.00 1014.36 1014.64 1015.04 1015.28 1015.64 1015.88 1016.16 1016.44 1016.76 1017.12 1017.48 1017.80 1018.08 1018.36 1018.64 1018.84 1019.04 1019.28 1019.44 1019.60 1019.84 1020.16 1020.44 1020.64 1020.80 1020.92 1021.16 1021.32 1021.44 1021.68 1021.72 1021.76 1021.72 1021.92 1022.04 1022.16 1022.04 1022.32 1022.40 1022.64 1022.80 1022.80 1022.84 1022.80 1022.64 1022.52 1022.52 1022.68 1022.76 1023.56 1023.76 1024.04 1024.32 1024.16 1024.36 1024.20
1011.36 1011.88 1012.36 1012.76 1013.16 1013.52 1013.88 1014.20 1014.52 1014.84 1015.24 1015.60 1015.88 1016.00 1016.32 1016.68 1017.08 1017.44 1017.76 1018.08 1018.36 1018.60 1018.76 1019.00 1019.24 1019.40 1019.60 1019.80 1020.12 1020.48 1020.68 1020.76 1020.88 1021.08 1021.28 1021.48 1021.68 1021.84 1021.80 1021.84 1021.92 1022.12 1022.28 1022.16 1022.44 1022.60 1022.84 1022.84 1022.96 1022.80 1023.00 1022.96 1022.80 1022.84 1022.92 1022.92 1023.24 1023.80 1024.00 1024.20 1024.60 1024.28 1024.16
1011.16 1011.68 1012.16 1012.52 1012.96 1013.32 1013.72 1014.08 1014.40 1014.72 1015.08 1015.48 1015.76 1016.12 1016.36 1016.64 1017.04 1017.40 1017.68 1018.00 1018.24 1018.48 1018.76 1019.00 1019.24 1019.44 1019.60 1019.84 1020.12 1020.36 1020.64 1020.80 1020.92 1021.04 1021.24 1021.52 1021.72 1021.76 1021.68 1021.80 1022.04 1022.20 1022.28 1022.24 1022.60 1022.80 1023.00 1023.04 1022.92 1023.04 1023.16 1023.32 1023.16 1023.12 1023.20 1023.12 1023.20 1023.48 1024.00 1024.00 1024.40 1024.32 1024.32
1010.96 1011.44 1011.88 1012.32 1012.76 1013.16 1013.56 1013.96 1014.32 1014.60 1015.04 1015.44 1015.72 1016.04 1016.44 1016.68 1016.96 1017.28 1017.52 1017.80 1018.16 1018.40 1018.64 1018.92 1019.20 1019.52 1019.72 1019.88 1020.04 1020.28 1020.52 1020.72 1020.88 1021.04 1021.28 1021.48 1021.68 1021.68 1021.72 1021.72 1022.08 1022.28 1022.24 1022.28 1022.72 1022.76 1022.96 1022.84 1023.16 1023.08 1023.20 1023.52 1023.44 1023.68 1023.60 1023.44 1023.40 1023.44 1023.56 1023.84 1024.24 1024.44 1024.52
1010.68 1011.12 1011.60 1012.04 1012.48 1012.92 1013.36 1013.80 1014.16 1014.56 1014.84 1015.28 1015.68 1015.96 1016.24 1016.60 1016.80 1017.08 1017.40 1017.68 1017.96 1018.24 1018.56 1018.84 1019.12 1019.36 1019.64 1019.84 1020.04 1020.24 1020.44 1020.68 1020.92 1021.12 1021.36 1021.52 1021.60 1021.72 1021.68 1021.84 1022.16 1022.28 1022.20 1022.20 1022.64 1022.92 1022.96 1022.92 1023.16 1023.12 1023.20 1023.48 1023.76 1023.76 1023.60 1023.88 1023.84 1023.72 1023.80 1024.20 1024.08 1024.12 1024.44
1010.40 1010.88 1011.32 1011.76 1012.24 1012.72 1013.16 1013.60 1014.00 1014.44 1014.76 1015.12 1015.52 1015.88 1016.20 1016.44 1016.72 1016.96 1017.28 1017.56 1017.84 1018.12 1018.44 1018.80 1019.04 1019.28 1019.52 1019.76 1019.96 1020.20 1020.48 1020.72 1020.96 1021.20 1021.36 1021.48 1021.60 1021.72 1021.80 1021.92 1022.16 1022.28 1022.20 1022.32 1022.52 1022.68 1022.92 1023.08 1023.04 1023.12 1023.20 1023.32 1023.64 1023.40 1023.56 1023.80 1023.88 1023.88 1024.04 1024.20 1024.60 1024.72 1024.40
1010.20 1010.64 1011.08 1011.56 1012.00 1012.44 1012.96 1013.44 1013.84 1014.24 1014.64 1015.08 1015.40 1015.64 1015.96 1016.28 1016.64 1016.88 1017.16 1017.40 1017.72 1018.00 1018.36 1018.68 1018.92 1019.16 1019.40 1019.68 1019.96 1020.24 1020.44 1020.72 1021.00 1021.20 1021.40 1021.56 1021.68 1021.76 1021.92 1022.00 1022.08 1022.20 1022.16 1022.32 1022.36 1022.76 1022.72 1022.92 1023.20 1023.20 1023.64 1023.52 1023.52 1023.52 1023.60 1023.84 1023.88 1023.96 1024.08 1024.24 1024.20 1023.92 1024.28
1010.00 1010.48 1010.92 1011.40 1011.88 1012.32 1012.72 1013.20 1013.64 1014.12 1014.44 1014.80 1015.12 1015.44 1015.80 1016.16 1016.56 1016.88 1017.16 1017.36 1017.64 1017.96 1018.20 1018.44 1018.72 1019.00 1019.36 1019.72 1019.96 1020.16 1020.48 1020.68 1020.92 1021.20 1021.48 1021.68 1021.88 1021.96 1022.04 1022.04 1022.08 1022.20 1022.24 1022.28 1022.40 1022.52 1022.72 1022.84 1022.96 1023.16 1023.64 1023.64 1023.52 1023.64 1023.88 1023.88 1023.84 1023.96 1024.00 1023.76 1023.92 1024.28 1023.68
1009.80 1010.24 1010.72 1011.16 1011.64 1012.12 1012.60 1013.04 1013.48 1013.92 1014.24 1014.48 1014.92 1015.32 1015.76 1016.08 1016.36 1016.60 1016.96 1017.32 1017.60 1017.84 1018.08 1018.28 1018.48 1018.76 1019.08 1019.52 1019.92 1020.20 1020.52 1020.76 1021.00 1021.28 1021.56 1021.88 1022.08 1022.12 1022.08 1022.08 1022.12 1022.04 1022.16 1022.32 1022.52 1022.64 1022.76 1022.84 1022.88 1022.88 1023.16 1023.32 1023.36 1023.48 1023.60 1023.72 1023.68 1023.48 1023.44 1023.44 1023.52 1023.36 1023.16
1009.48 1010.00 1010.36 1010.88 1011.40 1011.92 1012.40 1012.84 1013.32 1013.68 1014.04 1014.36 1014.76 1015.20 1015.60 1015.96 1016.24 1016.48 1016.76 1017.08 1017.48 1017.72 1017.92 1018.08 1018.32 1018.76 1019.12 1019.40 1019.76 1020.12 1020.40 1020.72 1020.96 1021.20 1021.44 1021.64 1021.84 1022.08 1022.20 1022.16 1022.12 1022.16 1022.32 1022.52 1022.60 1022.60 1022.64 1022.72 1022.88 1023.12 1023.12 1023.12 1023.28 1023.12 1023.44 1023.76 1023.68 1023.60 1023.44 1023.52 1023.80 1023.56 1023.28
1009.24 1009.68 1010.16 1010.64 1011.12 1011.64 1012.16 1012.72 1013.16 1013.48 1013.88 1014.32 1014.68 1015.04 1015.48 1015.72 1016.04 1016.36 1016.68 1017.00 1017.28 1017.52 1017.76 1017.96 1018.32 1018.76 1019.08 1019.28 1019.44 1019.72 1020.08 1020.44 1020.84 1021.12 1021.36 1021.52 1021.84 1022.00 1022.12 1022.20 1022.40 1022.48 1022.48 1022.20 1021.96 1021.88 1021.64 1021.44 1021.56 1022.04 1022.48 1022.84 1023.08 1023.12 1023.36 1023.44 1023.64 1023.68 1023.64 1023.48 1023.48 1023.20 1023.20
1009.00 1009.44 1009.88 1010.40 1010.96 1011.48 1012.00 1012.48 1012.96 1013.36 1013.72 1014.04 1014.52 1015.00 1015.32 1015.68 1015.96 1016.24 1016.52 1016.84 1017.16 1017.40 1017.64 1017.88 1018.24 1018.56 1018.76 1018.88 1019.12 1019.52 1020.00 1020.28 1020.64 1021.04 1021.24 1021.44 1021.68 1021.88 1022.00 1021.96 1022.12 1022.24 1022.04 1021.96 1021.96 1021.92 1021.84 1021.80 1021.68 1021.88 1022.24 1022.60 1022.72 1022.76 1022.96 1023.12 1023.20 1023.16 1023.32 1023.24 1022.92 1023.12 1022.96
1008.76 1009.24 1009.68 1010.20 1010.76 1011.32 1011.88 1012.24 1012.60 1012.96 1013.48 1014.08 1014.48 1014.88 1015.20 1015.44 1015.76 1016.08 1016.32 1016.60 1016.92 1017.24 1017.48 1017.76 1018.04 1018.24 1018.40 1018.72 1019.16 1019.44 1019.76 1020.12 1020.44 1020.80 1021.04 1021.20 1021.36 1021.40 1021.36 1021.48 1021.72 1021.76 1021.92 1021.84 1021.88 1021.96 1022.04 1022.20 1022.36 1022.56 1022.80 1022.76 1022.56 1022.64 1022.92 1023.00 1023.08 1023.20 1023.20 1022.96 1022.72 1022.48 1022.84
1008.56 1009.04 1009.56 1010.08 1010.60 1011.04 1011.60 1012.12 1012.52 1012.92 1013.36 1013.80 1014.28 1014.64 1014.96 1015.32 1015.64 1015.92 1016.20 1016.44 1016.76 1017.08 1017.24 1017.52 1017.80 1018.04 1018.40 1018.72 1019.08 1019.40 1019.72 1020.12 1020.40 1020.68 1020.88 1020.88 1020.96 1021.16 1021.44 1021.52 1021.52 1021.60 1021.76 1021.72 1021.72 1021.76 1021.88 1022.08 1022.20 1022.32 1022.48 1022.48 1022.48 1022.56 1022.68 1022.88 1023.04 1023.16 1023.16 1022.96 1022.60 1022.40 1022.72
1008.36 1008.88 1009.40 1009.96 1010.48 1010.96 1011.36 1011.76 1012.28 1012.80 1013.20 1013.60 1013.92 1014.24 1014.72 1015.04 1015.44 1015.76 1016.04 1016.28 1016.60 1016.84 1017.08 1017.36 1017.68 1017.96 1018.24 1018.56 1019.08 1019.36 1019.64 1019.96 1020.24 1020.56 1020.68 1020.84 1020.92 1021.12 1021.40 1021.48 1021.48 1021.60 1021.60 1021.56 1021.44 1021.68 1021.80 1021.92 1022.00 1022.16 1022.24 1022.32 1022.48 1022.60 1022.68 1022.76 1022.88 1022.96 1022.92 1022.68 1022.44 1022.32 1022.48
1008.08 1008.64 1009.16 1009.76 1010.28 1010.72 1011.20 1011.68 1012.08 1012.52 1013.04 1013.48 1013.84 1014.24 1014.48 1014.80 1015.12 1015.48 1015.84 1016.12 1016.28 1016.52 1016.92 1017.32 1017.56 1017.84 1018.12 1018.48 1019.00 1019.28 1019.52 1019.76 1020.04 1020.32 1020.52 1020.72 1020.80 1021.04 1021.24 1021.32 1021.32 1021.36 1021.48 1021.56 1021.64 1021.88 1021.92 1021.92 1022.00 1022.12 1022.16 1022.20 1022.44 1022.52 1022.56 1022.76 1022.84 1022.88 1022.80 1022.64 1022.48 1022.44 1022.52
1007.84 1008.44 1008.92 1009.40 1009.88 1010.40 1010.76 1011.08 1011.72 1012.32 1012.68 1013.16 1013.60 1013.88 1014.16 1014.56 1014.92 1015.20 1015.48 1015.72 1015.84 1016.24 1016.72 1017.16 1017.44 1017.76 1018.08 1018.48 1018.60 1018.96 1019.28 1019.52 1019.88 1020.16 1020.48 1020.76 1020.88 1021.00 1021.04 1020.96 1021.08 1021.20 1021.44 1021.68 1021.84 1022.00 1022.16 1022.08 1022.08 1022.16 1022.20 1022.16 1022.24 1022.32 1022.44 1022.64 1022.88 1022.92 1022.88 1022.76 1022.64 1022.56 1022.56
1007.52 1008.20 1008.72 1009.08 1009.40 1009.88 1010.44 1010.88 1011.32 1011.84 1012.24 1012.68 1013.04 1013.44 1013.84 1014.16 1014.60 1014.92 1015.12 1015.36 1015.80 1016.16 1016.56 1017.08 1017.44 1017.68 1017.96 1018.20 1018.44 1018.72 1019.04 1019.36 1019.76 1020.12 1020.40 1020.68 1020.88 1020.96 1021.00 1020.84 1020.80 1021.04 1021.32 1021.60 1021.72 1021.88 1022.04 1022.16 1022.12 1022.16 1022.12 1022.08 1022.08 1022.20 1022.12 1022.36 1022.48 1022.48 1022.52 1022.44 1022.36 1022.40 1022.36
1007.28 1007.80 1008.32 1008.84 1009.24 1009.52 1009.92 1010.60 1011.24 1011.68 1012.04 1012.32 1012.68 1013.08 1013.48 1013.72 1014.16 1014.68 1015.12 1015.44 1015.68 1015.88 1016.36 1016.92 1017.36 1017.52 1017.68 1017.96 1018.16 1018.40 1018.88 1019.20 1019.56 1019.84 1020.20 1020.40 1020.72 1020.88 1020.84 1020.84 1020.80 1020.88 1021.08 1021.40 1021.44 1021.52 1021.72 1021.92 1021.92 1022.04 1022.12 1021.88 1021.88 1021.80 1022.08 1022.36 1022.48 1022.48 1022.36 1022.40 1022.44 1022.60 1022.56
1007.12 1007.52 1007.84 1008.28 1008.68 1009.36 1009.84 1010.28 1010.84 1011.32 1011.68 1012.08 1012.48 1012.84 1013.20 1013.56 1014.04 1014.64 1015.08 1015.32 1015.52 1015.84 1016.08 1016.44 1017.08 1017.36 1017.52 1017.64 1017.88 1018.04 1018.48 1018.64 1018.92 1019.36 1019.84 1020.16 1020.32 1020.44 1020.52 1020.56 1020.68 1020.72 1020.88 1021.16 1021.24 1021.20 1021.40 1021.60 1021.68 1021.84 1021.88 1021.68 1021.52 1021.60 1022.04 1022.16 1022.12 1022.36 1022.32 1022.28 1022.32 1022.36 1022.32
1006.92 1007.24 1007.76 1008.40 1009.08 1009.52 1009.84 1010.12 1010.48 1010.84 1011.52 1012.08 1012.44 1012.72 1013.08 1013.48 1013.92 1014.52 1015.04 1015.28 1015.48 1015.80 1016.12 1016.28 1016.68 1017.24 1017.36 1017.52 1017.68 1017.76 1017.96 1018.24 1018.44 1018.96 1019.60 1019.84 1020.08 1020.16 1020.04 1020.08 1020.40 1020.56 1020.68 1020.84 1020.92 1020.96 1021.12 1021.32 1021.44 1021.60 1021.60 1021.44 1021.68 1021.88 1021.76 1021.92 1022.08 1022.24 1022.28 1022.32 1022.28 1022.16 1022.08
1007.20 1007.68 1007.96 1008.16 1008.64 1009.36 1009.88 1010.32 1010.72 1011.08 1011.48 1011.88 1012.40 1012.92 1013.24 1013.56 1013.96 1014.52 1015.00 1015.40 1015.64 1015.92 1016.16 1016.44 1016.52 1016.96 1017.32 1017.40 1017.44 1017.56 1017.60 1017.96 1018.32 1018.64 1019.00 1019.44 1019.64 1019.64 1019.64 1019.76 1020.00 1020.28 1020.40 1020.48 1020.64 1020.72 1020.92 1021.08 1021.36 1021.40 1021.32 1021.60 1021.72 1021.76 1021.88 1022.00 1022.12 1022.20 1022.20 1022.20 1022.24 1021.92 1021.76
1007.36 1007.52 1007.92 1008.36 1008.80 1009.48 1010.00 1010.32 1010.72 1011.08 1011.48 1012.00 1012.48 1013.08 1013.52 1013.72 1014.00 1014.44 1014.92 1015.44 1015.80 1016.04 1016.28 1016.44 1016.68 1016.80 1017.08 1017.28 1017.48 1017.64 1017.80 1017.92 1018.12 1018.36 1018.64 1018.84 1019.16 1019.32 1019.52 1019.64 1019.84 1020.04 1020.20 1020.28 1020.40 1020.60 1020.76 1021.00 1021.12 1021.08 1021.32 1021.52 1021.68 1021.80 1021.84 1021.92 1022.00 1022.04 1022.12 1022.12 1022.04 1021.88 1021.52
Wind_Speed
9 9 7 6 4 5 6 4 4 3 3 4 5 5 6 6 6 6 6 6 6 5 6 6 6 5 5 3 5 4 4 6 7 8 6 6 8 5 1 2 3 3 4 2 4 7 6 5 3 1 2 3 2 2 1 1 2 2 1 2 1 3 3
8 8 7 6 6 5 6 4 4 3 3 3 3 5 5 6 6 6 6 6 6 4 4 5 5 5 7 7 6 5 6 5 5 4 7 7 5 6 4 2 4 3 2 2 3 3 3 4 1 4 3 1 1 3 3 2 1 1 1 1 1 1 2
7 6 7 8 7 6 7 6 5 5 5 5 4 4 5 4 6 6 6 6 6 5 4 4 4 3 4 5 7 7 6 6 4 4 7 7 6 4 5 6 4 2 2 2 1 3 3 2 6 6 4 5 3 3 3 3 2 1 0 0 3 4 3
10 10 8 8 7 6 7 6 6 5 5 5 4 3 4 5 5 5 6 6 6 5 6 7 6 5 4 5 6 5 6 7 6 5 2 3 4 4 4 7 7 8 7 6 6 4 3 2 3 2 1 2 4 1 3 2 4 5 4 3 4 3 3
12 10 11 10 9 9 8 8 6 6 5 5 5 5 4 4 5 5 5 5 5 4 4 3 4 4 4 3 5 6 5 4 4 5 4 5 4 4 3 4 6 5 4 5 6 6 7 5 6 5 5 1 1 0 1 4 4 5 4 4 4 3 3
11 11 11 10 10 9 8 8 8 8 6 6 6 7 5 6 6 6 6 6 5 5 6 6 4 4 5 4 5 5 6 6 7 6 6 6 7 7 6 2 4 4 4 1 5 6 2 5 7 5 0 1 3 2 0 2 2 1 2 3 2 2 2
11 11 10 10 10 8 9 10 10 10 9 9 8 7 7 6 5 6 6 5 4 4 5 6 6 5 4 5 4 6 5 4 4 5 5 4 3 3 5 6 3 4 3 3 4 6 6 6 4 8 5 2 2 4 1 2 1 2 1 1 1 1 1
10 9 9 8 10 9 8 9 8 7 8 7 8 6 6 6 6 5 5 6 5 6 5 5 3 4 4 5 4 5 5 4 5 6 5 6 7 5 4 5 5 4 4 3 4 4 5 6 8 7 8 7 3 3 2 2 2 3 1 2 1 1 3
9 8 7 7 8 9 9 9 8 7 6 7 5 6 6 7 7 6 5 5 4 5 5 5 4 4 4 5 4 4 5 3 6 5 5 5 6 5 5 4 6 4 3 3 3 4 3 4 5 5 7 9 10 4 1 2 1 0 0 0 1 0 4
11 11 10 9 9 7 7 7 8 7 7 6 7 6 7 5 6 7 6 6 5 5 4 4 4 3 4 4 5 5 5 4 5 6 5 6 5 5 5 4 6 5 3 3 3 4 4 4 4 5 5 8 8 8 5 3 2 2 0 0 1 2 3
11 10 9 10 8 8 7 7 7 7 8 7 7 6 7 7 6 6 6 6 6 6 4 4 4 4 4 5 4 4 4 5 5 4 3 6 5 4 5 4 4 6 3 4 4 3 4 3 4 5 5 4 5 9 6 7 2 2 0 1 1 1 3
9 9 8 9 9 9 10 9 9 8 7 7 7 7 7 7 7 6 6 6 5 5 3 4 4 5 5 6 4 5 4 4 6 5 3 5 4 5 5 5 4 4 4 4 3 3 3 3 4 5 4 5 3 6 8 6 5 2 2 0 1 1 0
10 10 9 10 9 10 10 9 9 8 9 8 7 8 8 8 7 7 5 6 6 6 5 4 5 5 5 5 5 6 4 4 6 6 4 3 4 5 6 6 4 5 4 4 4 4 3 2 2 4 4 6 5 5 6 5 5 4 4 2 1 2 0
11 10 10 10 10 10 9 9 9 8 7 7 8 8 8 8 8 7 7 7 7 7 5 5 4 5 5 5 4 5 4 5 6 5 5 4 3 5 6 6 4 4 4 5 4 4 4 3 3 3 3 5 6 3 6 5 6 4 1 0 1 1 2
11 10 11 11 10 10 9 9 8 8 9 8 8 9 9 7 7 8 7 7 6 6 6 6 5 5 6 6 5 4 6 6 6 5 5 5 4 4 5 6 4 3 2 5 4 4 5 4 4 4 3 5 5 4 2 4 3 3 2 1 2 2 2
11 12 12 11 11 10 9 9 8 9 8 8 7 8 8 8 8 7 7 7 7 6 7 7 6 6 7 7 7 5 5 6 7 7 6 6 5 4 5 5 4 4 3 5 4 4 4 4 3 5 3 3 5 4 3 4 4 3 4 1 1 1 2
13 12 12 11 12 10 9 9 8 9 8 8 9 6 7 8 8 8 8 7 8 7 7 6 6 6 7 7 7 7 5 5 6 6 7 6 6 6 6 6 5 5 4 6 4 5 3 4 5 5 4 3 5 4 3 4 3 4 2 3 1 0 1
13 13 13 11 12 11 10 9 8 9 8 8 7 8 6 7 8 8 9 9 8 7 8 7 7 6 5 5 7 7 6 6 6 6 6 6 6 6 6 6 6 5 5 7 4 5 4 5 4 5 5 3 5 3 3 4 3 3 5 3 1 1 1
14 14 13 12 12 11 10 10 9 8 9 9 8 8 9 7 8 8 7 8 8 8 7 7 7 7 7 6 6 6 6 6 5 5 5 5 5 4 5 5 5 5 6 7 5 4 4 5 4 5 5 4 4 4 5 3 4 5 6 3 2 1 2
12 12 12 11 11 11 10 10 10 10 9 9 10 9 8 8 6 8 7 8 8 8 7 6 7 7 7 6 6 6 6 5 5 5 5 5 4 4 4 5 5 5 6 6 6 6 6 4 5 4 4 5 3 5 5 3 4 5 4 4 1 0 1
11 11 11 10 11 11 10 10 10 9 9 10 10 10 10 9 7 7 7 8 7 7 7 7 6 6 7 7 6 6 6 6 5 4 4 4 4 4 4 4 5 5 6 6 6 5 6 6 4 4 2 4 4 5 5 4 5 5 5 3 2 1 0
10 11 11 11 11 11 11 11 10 10 10 10 9 9 8 8 8 7 6 7 7 6 7 8 7 7 7 6 6 6 6 6 6 5 4 3 3 3 4 4 4 4 5 7 8 7 6 7 6 5 2 3 4 5 4 4 5 5 4 4 3 1 2
11 11 12 12 12 11 11 10 11 11 11 11 10 9 8 8 8 9 8 7 6 7 7 6 8 12 10 8 6 5 5 5 5 5 5 4 3 2 4 4 4 9 9 9 8 8 8 6 5 6 7 6 6 6 5 5 5 4 4 4 2 2 3
12 13 12 11 11 12 12 10 10 11 10 10 11 10 9 9 8 8 9 8 8 7 6 6 12 13 12 12 8 6 7 6 5 7 6 7 6 4 3 3 4 6 7 7 6 8 8 8 7 7 8 8 7 8 6 4 3 3 3 2 3 2 2
13 13 12 12 12 12 11 11 11 11 10 10 9 9 10 10 9 8 7 7 8 7 6 9 13 13 13 13 11 9 7 7 6 6 7 7 6 6 5 5 3 4 5 8 9 9 12 16 16 15 12 10 9 6 5 6 4 2 2 4 4 3 3
13 13 13 12 11 11 12 12 11 10 11 10 9 10 10 9 8 7 8 8 7 7 6 10 13 14 14 15 15 11 7 7 8 7 8 8 8 7 7 8 8 7 7 13 10 8 8 9 11 13 11 9 7 7 5 4 4 3 5 4 3 3 4
14 13 12 12 12 12 12 12 11 10 9 9 9 9 9 10 8 8 8 8 8 7 7 10 15 16 16 15 14 11 7 8 8 8 9 10 9 10 11 10 8 7 7 7 7 7 5 5 5 4 3 4 4 5 6 6 6 6 7 5 4 3 4
14 13 12 12 12 13 13 11 11 10 10 11 11 10 10 9 8 8 7 7 7 8 7 13 15 16 15 15 14 11 7 6 7 8 9 10 10 9 7 6 7 7 7 8 7 9 8 7 6 5 4 3 2 2 2 3 5 6 6 5 5 5 4
13 13 13 12 13 12 12 12 12 9 9 8 8 8 7 8 9 9 8 8 7 8 7 14 15 16 16 15 14 8 7 8 8 9 9 7 7 7 7 6 6 7 8 8 10 12 8 6 6 5 4 2 1 0 2 3 5 7 7 7 6 6 5
14 14 14 14 13 13 12 11 10 9 10 9 9 9 9 9 8 9 9 9 10 9 6 11 16 16 16 16 12 8 8 8 8 9 8 7 7 7 7 6 7 7 6 7 7 10 8 8 4 4 4 3 2 1 2 2 4 7 11 9 8 8 7
14 14 14 15 14 12 12 11 11 10 11 10 10 9 9 8 7 8 10 11 11 9 7 10 16 16 16 17 14 10 8 8 8 8 7 5 6 6 7 13 9 6 5 4 5 9 8 6 4 4 4 4 2 2 3 2 2 1 3 6 6 7 8
15 14 14 14 14 15 13 12 11 10 10 10 10 9 9 9 8 8 9 9 9 9 8 9 15 16 17 17 14 8 8 7 8 6 7 6 4 6 6 9 11 8 6 5 9 10 10 7 4 5 6 5 4 4 6 4 4 2 1 1 1 1 3
15 15 14 12 11 12 11 10 10 10 9 9 9 9 9 9 10 8 7 7 8 9 9 8 12 17 17 17 17 10 7 8 8 8 7 7 7 5 6 5 6 10 11 10 11 11 11 11 7 5 4 5 4 6 5 3 3 2 2 1 2 2 3
14 13 14 15 13 11 10 11 11 11 10 9 8 8 10 8 7 7 7 7 7 7 8 10 11 16 17 19 18 14 9 10 8 8 8 7 7 8 7 7 6 8 12 12 12 12 12 13 11 6 6 6 8 4 6 5 4 5 2 1 1 2 4
14 14 11 9 9 9 8 10 11 12 9 9 10 10 9 8 7 7 6 6 6 6 6 11 11 15 17 18 18 18 10 9 9 8 7 7 7 7 8 8 7 8 13 13 13 12 13 13 14 7 8 10 6 8 7 4 3 3 1 1 2 4 3
10 7 8 11 13 11 9 9 9 8 10 10 10 9 8 7 7 7 6 5 4 5 5 7 12 12 15 16 17 16 14 10 10 8 9 9 9 10 8 7 7 10 14 14 13 13 12 13 11 8 11 9 8 9 6 3 3 3 2 2 2 5 5
9 10 11 9 10 10 10 9 9 8 9 9 8 7 6 7 7 7 7 6 4 4 4 5 8 12 13 16 14 14 12 11 12 9 8 8 8 8 7 7 7 10 12 13 13 12 12 12 9 12 10 9 9 7 3 3 3 3 2 2 3 4 6
Wind_Direction
175 169 167 163 158 158 162 167 152 156 143 140 134 131 135 135 134 131 129 130 130 141 144 151 148 146 140 150 171 165 154 168 171 167 182 182 168 206 129 81 73 88 111 87 145 163 155 165 241 287 277 310 329 301 246 285 43 65 64 17 29 59 40
161 157 156 157 161 161 157 148 154 146 134 128 131 135 135 135 134 134 131 126 125 128 130 132 134 149 150 149 155 156 174 185 186 179 161 189 184 177 118 64 78 73 68 57 105 90 133 128 234 189 209 340 339 304 316 61 38 137 132 183 103 72 54
149 143 156 162 164 162 160 161 153 147 141 123 121 130 125 126 128 128 123 126 131 138 123 115 114 122 139 146 163 173 174 178 191 174 186 179 186 173 165 150 128 101 75 75 101 90 55 88 163 195 195 164 183 271 353 12 353 40 135 190 87 68 30
159 153 158 166 156 157 161 161 161 155 146 142 133 128 129 129 124 121 124 139 144 145 143 139 150 160 177 155 154 157 171 175 174 168 133 154 157 152 155 165 170 171 177 174 194 187 140 133 74 115 130 192 172 195 10 339 52 55 70 82 71 38 0
162 165 169 170 172 170 166 162 155 143 145 141 141 135 133 135 128 124 135 138 133 127 130 123 133 153 161 158 146 153 160 156 151 155 157 151 152 139 157 173 177 167 147 164 183 166 164 184 151 165 150 139 56 103 273 70 47 65 63 64 48 34 349
168 169 172 170 174 172 166 160 161 163 154 151 165 151 158 150 139 136 148 143 134 150 145 143 155 158 158 165 156 144 147 159 170 163 164 173 164 164 169 145 140 151 171 171 137 147 106 129 137 113 132 108 153 136 86 84 103 3 44 53 32 351 330
170 172 174 172 175 173 171 170 172 169 168 167 163 168 162 152 150 154 152 150 150 150 155 149 159 163 161 154 155 148 151 151 139 148 141 136 123 119 131 131 131 132 132 127 134 134 145 128 143 148 140 41 87 127 348 44 350 87 335 332 318 302 348
168 173 175 173 171 170 173 172 174 164 161 164 163 153 153 152 150 147 151 149 153 156 142 139 175 158 152 135 142 138 125 130 129 127 131 135 132 132 123 130 127 104 120 130 132 150 147 158 153 161 138 121 59 34 42 21 6 61 214 292 252 349 46
167 168 166 169 175 172 172 170 160 160 156 148 147 145 157 153 152 152 152 147 149 152 162 152 164 156 148 132 127 131 125 120 127 124 132 123 124 127 122 119 105 113 114 121 121 130 141 150 141 146 148 145 144 160 34 85 16 18 320 155 305 288 49
171 173 172 169 168 166 163 162 162 158 147 152 151 154 150 153 152 155 151 150 157 156 152 155 155 147 136 129 128 127 123 120 120 131 130 122 124 124 113 121 122 128 123 115 99 104 108 96 115 147 164 160 159 141 159 150 216 170 306 232 102 316 66
172 170 163 164 159 155 153 146 144 151 167 163 155 155 149 150 156 159 151 155 162 159 163 151 151 137 125 111 116 113 126 127 116 104 118 125 130 123 117 106 117 115 132 111 116 111 97 108 112 121 134 151 156 154 162 149 183 201 156 301 203 295 15
169 164 160 157 157 162 163 164 165 159 149 152 150 149 150 152 159 160 155 156 158 148 148 157 146 134 125 122 124 125 122 130 127 125 131 129 139 127 126 123 121 124 134 120 110 96 96 100 107 107 104 105 104 136 136 122 121 255 159 127 286 261 322
164 163 161 159 165 168 167 163 156 159 168 157 155 154 156 159 160 156 156 154 159 148 163 154 142 129 125 133 134 131 140 136 133 137 138 129 132 131 131 135 148 141 133 113 114 121 121 108 115 99 98 95 95 111 113 111 117 159 217 193 260 278 202
165 162 162 167 166 168 166 164 169 164 147 159 154 158 163 163 158 155 154 161 161 160 156 147 141 137 134 132 128 136 143 147 139 140 134 131 129 138 143 144 156 145 133 121 131 122 115 117 85 83 93 93 94 91 103 103 114 132 328 145 275 291 314
164 164 166 169 169 168 168 168 163 154 164 161 162 163 164 160 154 153 156 158 156 154 153 151 151 147 148 148 148 149 153 152 143 141 137 145 155 153 146 144 152 149 142 125 129 124 136 128 120 99 95 108 109 84 103 102 125 121 172 324 0 330 11
166 167 169 171 171 168 167 163 162 163 163 161 167 165 162 157 155 152 151 154 155 159 161 160 161 159 161 158 157 161 161 157 153 152 155 162 164 153 144 149 157 144 127 109 113 119 117 116 111 110 114 103 96 90 92 119 117 117 136 118 257 343 348
167 169 173 173 171 167 163 164 164 165 163 160 163 161 156 154 151 156 156 159 165 163 163 164 164 168 164 161 162 163 161 161 159 159 160 162 165 164 160 147 159 148 131 117 124 114 109 114 113 113 100 81 97 89 77 89 107 135 160 119 350 132 285
171 173 173 171 169 164 164 162 166 164 158 163 160 151 155 155 157 162 167 167 165 167 169 167 164 162 161 165 164 162 163 163 164 163 163 165 169 165 160 154 156 146 132 119 122 119 125 112 115 110 107 99 98 94 70 81 89 99 121 131 149 273 295
176 175 173 170 167 166 164 165 164 164 163 160 158 164 162 168 170 170 165 166 166 169 169 167 166 164 164 164 163 163 162 162 161 159 162 169 168 169 156 150 152 148 135 132 138 129 125 123 115 108 108 104 108 100 96 74 87 100 104 109 125 46 354
174 173 171 168 164 164 166 165 164 165 165 161 162 167 171 169 172 165 167 165 170 168 166 164 163 163 164 165 164 160 160 157 155 160 169 170 170 166 149 144 147 148 139 140 143 145 133 124 122 126 136 131 130 109 105 103 99 97 106 114 66 41 338
170 170 167 164 165 166 164 164 167 163 158 162 170 172 172 173 167 165 167 169 169 164 162 164 166 165 166 166 162 163 161 160 158 160 160 164 161 148 139 142 147 154 149 152 144 150 136 131 123 117 143 124 123 109 113 117 99 107 115 105 123 121 141
166 165 164 162 163 166 167 165 163 163 167 169 172 173 168 163 160 164 166 166 165 165 167 172 172 167 164 166 162 161 163 161 158 150 141 129 114 119 128 145 153 155 155 152 149 148 149 145 135 135 177 135 126 120 119 116 131 130 137 132 138 162 111
166 165 165 167 167 165 166 164 163 167 173 171 170 166 163 166 168 169 167 169 167 169 175 175 176 170 166 162 163 158 152 155 149 139 132 119 105 126 148 152 165 159 145 135 131 138 148 158 156 153 165 160 145 139 142 147 157 150 130 118 146 137 74
166 170 170 166 164 166 165 163 167 170 172 170 167 166 164 167 174 173 171 169 171 176 179 181 175 167 164 158 156 156 157 153 145 142 145 144 149 145 138 137 127 119 113 107 120 140 149 153 149 154 164 161 157 150 146 144 155 162 150 160 184 151 129
168 169 168 170 166 165 162 164 169 171 169 169 167 163 169 176 174 172 171 170 174 178 180 181 167 165 164 165 164 162 160 154 150 151 148 148 147 146 139 115 95 109 138 170 174 172 169 165 163 167 169 170 166 153 158 153 163 201 199 169 190 187 141
169 168 171 165 162 160 163 166 168 169 173 172 161 167 176 172 176 173 169 172 179 180 180 177 166 167 171 173 169 157 156 153 151 155 158 155 152 152 150 148 157 176 190 188 182 181 178 172 164 161 163 160 159 157 165 188 188 178 180 192 167 181 181
169 170 167 163 160 161 165 171 171 170 163 160 165 170 174 178 173 173 175 176 179 181 181 176 169 172 177 175 162 155 153 158 156 158 160 161 166 168 166 167 177 183 193 192 194 187 174 163 153 142 158 188 180 178 185 204 216 218 206 195 176 185 213
169 166 164 162 162 164 167 167 166 165 166 167 168 176 179 179 176 174 175 175 176 183 194 174 173 175 174 167 164 156 152 157 157 164 172 176 173 173 173 177 183 187 189 197 196 191 176 167 158 164 181 198 185 186 192 204 211 212 217 210 195 207 188
167 166 163 161 164 167 167 165 166 166 165 170 173 169 175 170 170 176 178 175 178 192 191 172 174 175 174 169 159 161 161 161 168 175 183 187 171 173 177 186 183 194 200 204 205 189 174 155 154 162 189 199 152 215 244 229 243 225 218 207 201 205 202
168 167 165 164 168 168 165 165 168 163 164 169 169 176 177 178 176 173 177 183 188 193 182 174 176 177 175 166 162 168 170 168 176 178 188 189 179 176 182 191 194 196 206 218 200 179 177 153 159 173 183 180 170 140 239 280 304 240 220 211 213 221 226
166 168 168 170 167 168 170 166 164 167 171 168 174 180 174 173 174 180 182 191 194 184 182 176 179 178 172 168 171 173 174 171 178 182 184 190 183 186 191 197 200 196 206 215 175 185 196 174 173 178 174 166 161 204 249 269 307 296 260 239 247 247 248
165 168 173 174 171 168 169 170 170 169 170 168 173 173 173 174 178 186 194 192 181 177 177 179 180 175 175 177 175 175 171 173 173 184 179 188 200 198 208 211 209 198 202 187 178 191 199 197 195 190 187 165 186 206 222 202 211 202 277 1 331 350 317
169 169 170 169 171 171 166 158 158 169 171 173 171 173 177 179 180 186 175 172 185 181 173 174 182 180 179 179 182 173 173 168 182 187 185 183 184 211 217 225 231 215 204 196 196 193 194 200 199 201 169 178 188 226 213 182 225 188 216 220 253 262 256
167 172 174 176 172 164 163 165 165 169 170 170 170 171 175 178 172 164 170 178 182 182 179 175 182 181 185 182 185 174 183 186 184 179 182 186 190 193 207 215 232 214 199 203 205 197 197 205 206 189 192 192 203 195 146 178 210 200 208 252 282 293 295
175 176 169 150 147 157 165 163 168 171 155 160 175 177 173 168 162 159 166 176 187 180 180 175 169 188 187 187 186 185 182 192 181 172 173 188 188 202 207 208 220 209 197 203 210 202 202 204 210 200 207 214 183 155 174 187 164 165 200 271 305 307 305
170 160 159 158 157 157 156 158 162 162 165 168 164 170 169 159 153 156 160 172 164 165 171 180 176 178 192 191 191 193 188 180 171 170 177 186 193 205 208 205 214 201 196 203 210 211 209 210 206 215 216 197 185 185 165 151 148 155 198 235 280 286 287
157 162 156 149 143 145 156 161 160 165 166 161 156 158 161 156 152 160 166 158 143 133 151 169 184 186 186 193 195 195 194 180 171 184 186 194 195 202 198 202 207 203 199 203 207 209 212 208 206 215 207 191 181 175 169 155 171 192 200 234 265 271 275